Gloucester, Virginia, United States (23061)
Lat: 37.41N, Lon: 76.53W
Wx Zone: VAZ084
Local Info
Past Weather Observations for Today

NOTE: This archive is for the closest National Weather Service station to Gloucester. Information may differ from the station used for current weather conditions.

Click here for Long-term Archive

Time Weather Temperature Dewpoint Humidity Pressure Winds Precip Visibility
14:55
Clear
88°F / 31°C 64°F / 18°C 46% 30.18 in
(1022 mb)
S 4.6 mph
(S 7 kph)
- 10SM
14:35
Clear
88°F / 31°C 66°F / 19°C 49% 30.18 in
(1022 mb)
S 5.8 mph
(S 9 kph)
- 10SM
14:15
Clear
88°F / 31°C 66°F / 19°C 49% 30.18 in
(1022 mb)
S 5.8 mph
(S 9 kph)
- 10SM
13:55
Clear
88°F / 31°C 66°F / 19°C 49% 30.21 in
(1023 mb)
SW 5.8 mph
(SW 9 kph)
- 10SM
13:35
Clear
88°F / 31°C 66°F / 19°C 49% 30.21 in
(1023 mb)
S 5.8 mph
(S 9 kph)
- 10SM
13:15
Clear
86°F / 30°C 68°F / 20°C 55% 30.21 in
(1023 mb)
S 5.8 mph
(S 9 kph)
- 10SM
12:55
Partly Cloudy
86°F / 30°C 68°F / 20°C 55% 30.21 in
(1023 mb)
SW 4.6 mph
(SW 7 kph)
- 10SM
12:35
Partly Cloudy
86°F / 30°C 68°F / 20°C 55% 30.21 in
(1023 mb)
SW 5.8 mph
(SW 9 kph)
- 10SM
12:15
Partly Cloudy
84°F / 29°C 68°F / 20°C 58% 30.21 in
(1023 mb)
SSE 4.6 mph
(SSE 7 kph)
- 10SM
11:55
Partly Cloudy
84°F / 29°C 68°F / 20°C 58% 30.21 in
(1023 mb)
SSE 6.9 mph
(SSE 11 kph)
- 10SM
11:35
Partly Cloudy
84°F / 29°C 68°F / 20°C 58% 30.21 in
(1023 mb)
S 3.5 mph
(S 6 kph)
- 10SM
11:15
Partly Cloudy
84°F / 29°C 68°F / 20°C 58% 30.24 in
(1024 mb)
SW 5.8 mph
(SW 9 kph)
- 10SM
10:55
Mostly Cloudy
82°F / 28°C 68°F / 20°C 62% 30.24 in
(1024 mb)
S 6.9 mph
(S 11 kph)
- 10SM
10:35
Mostly Cloudy
81°F / 27°C 68°F / 20°C 66% 30.24 in
(1024 mb)
S 6.9 mph
(S 11 kph)
- 10SM
10:15
Mostly Cloudy
81°F / 27°C 68°F / 20°C 66% 30.24 in
(1024 mb)
S 6.9 mph
(S 11 kph)
- 10SM
09:55
Mostly Cloudy
79°F / 26°C 68°F / 20°C 70% 30.24 in
(1024 mb)
S 5.8 mph
(S 9 kph)
- 10SM
09:35
Overcast
79°F / 26°C 68°F / 20°C 70% 30.24 in
(1024 mb)
SW 4.6 mph
(SW 7 kph)
- 10SM
09:15
Overcast
79°F / 26°C 68°F / 20°C 70% 30.24 in
(1024 mb)
S 8.1 mph
(S 13 kph)
- 10SM
08:55
Overcast
77°F / 25°C 68°F / 20°C 74% 30.24 in
(1024 mb)
S 5.8 mph
(S 9 kph)
- 10SM
08:35
Overcast
77°F / 25°C 70°F / 21°C 79% 30.24 in
(1024 mb)
S 6.9 mph
(S 11 kph)
- 10SM
08:15
Overcast
75°F / 24°C 70°F / 21°C 83% 30.24 in
(1024 mb)
S 3.5 mph
(S 6 kph)
- 10SM
07:55
Overcast
75°F / 24°C 70°F / 21°C 83% 30.24 in
(1024 mb)
S 3.5 mph
(S 6 kph)
- 10SM
07:35
Overcast
75°F / 24°C 70°F / 21°C 83% 30.24 in
(1024 mb)
SSE 5.8 mph
(SSE 9 kph)
- 10SM
07:15
Overcast
75°F / 24°C 70°F / 21°C 83% 30.24 in
(1024 mb)
SSE 4.6 mph
(SSE 7 kph)
- 10SM
06:55
Mostly Cloudy
75°F / 24°C 70°F / 21°C 83% 30.21 in
(1023 mb)
SSE 5.8 mph
(SSE 9 kph)
- 10SM
06:35
Overcast
75°F / 24°C 70°F / 21°C 83% 30.21 in
(1023 mb)
S 4.6 mph
(S 7 kph)
- 10SM
06:15
Overcast
75°F / 24°C 70°F / 21°C 83% 30.21 in
(1023 mb)
SSE 5.8 mph
(SSE 9 kph)
- 10SM
05:55
Overcast
73°F / 23°C 70°F / 21°C 89% 30.21 in
(1023 mb)
S 3.5 mph
(S 6 kph)
- 10SM
05:35
Overcast
73°F / 23°C 70°F / 21°C 89% 30.21 in
(1023 mb)
S 6.9 mph
(S 11 kph)
- 10SM
05:15
Overcast
73°F / 23°C 70°F / 21°C 89% 30.21 in
(1023 mb)
S 4.6 mph
(S 7 kph)
- 10SM
04:55
Mostly Cloudy
73°F / 23°C 70°F / 21°C 89% 30.18 in
(1022 mb)
S 3.5 mph
(S 6 kph)
- 10SM
04:35
Partly Cloudy
73°F / 23°C 70°F / 21°C 89% 30.18 in
(1022 mb)
S 3.5 mph
(S 6 kph)
- 10SM
04:15
Clear
75°F / 24°C 70°F / 21°C 83% 30.18 in
(1022 mb)
S 3.5 mph
(S 6 kph)
- 10SM
03:55
Partly Cloudy
73°F / 23°C 70°F / 21°C 89% 30.18 in
(1022 mb)
S 4.6 mph
(S 7 kph)
- 10SM
03:35
Mostly Cloudy
73°F / 23°C 70°F / 21°C 89% 30.18 in
(1022 mb)
Calm - 10SM
03:15
Mostly Cloudy
73°F / 23°C 70°F / 21°C 89% 30.18 in
(1022 mb)
S 5.8 mph
(S 9 kph)
- 10SM
02:55
Partly Cloudy
73°F / 23°C 70°F / 21°C 89% 30.18 in
(1022 mb)
S 5.8 mph
(S 9 kph)
- 10SM
02:35
Partly Cloudy
73°F / 23°C 70°F / 21°C 89% 30.18 in
(1022 mb)
S 4.6 mph
(S 7 kph)
- 10SM
02:15
Partly Cloudy
73°F / 23°C 70°F / 21°C 89% 30.18 in
(1022 mb)
S 3.5 mph
(S 6 kph)
- 10SM
01:55
Partly Cloudy
75°F / 24°C 68°F / 20°C 78% 30.18 in
(1022 mb)
S 3.5 mph
(S 6 kph)
- 10SM
01:35
Partly Cloudy
75°F / 24°C 68°F / 20°C 78% 30.18 in
(1022 mb)
S 6.9 mph
(S 11 kph)
- 10SM
01:15
Clear
73°F / 23°C 68°F / 20°C 83% 30.21 in
(1023 mb)
S 5.8 mph
(S 9 kph)
- 10SM
00:55
Partly Cloudy
73°F / 23°C 68°F / 20°C 83% 30.21 in
(1023 mb)
S 4.6 mph
(S 7 kph)
- 10SM
00:35
Partly Cloudy
75°F / 24°C 68°F / 20°C 78% 30.21 in
(1023 mb)
S 6.9 mph
(S 11 kph)
- 10SM
00:15
Partly Cloudy
75°F / 24°C 68°F / 20°C 78% 30.18 in
(1022 mb)
SSE 8.1 mph
(SSE 13 kph)
- 10SM
Time Weather Temperature Dewpoint Humidity Pressure Winds Precip Visibility


Weather for websites

WeatherForYou.com, LLC is not responsible for any damages or problems caused by this service. Current weather conditions are obtained from the closest station including government and personal stations which may have varying degrees of accuracy. Weather forecasts are derived from the NOAA NDFD. Like all things, this site belongs to Jesus Christ... He just trusts us to maintain it. If you have any questions or comments email webmaster@weatherforyou.com

Copyright © 2015, WeatherForYou.com LLC. All rights reserved.